Vandalia, OH

5:41 AM EST on February 28, 2017 (GMT -0500)
Cox-Dayton International

Weather History for KDAY - December, 2011

Change the Weather History Date:

Friday, December 23, 2011

  Actual Average Record
Temperature  
Mean Temperature 35 °F 29 °F  
Max Temperature 38 °F 36 °F 64 °F (2015)
Min Temperature 31 °F 22 °F -8 °F (1960)
Degree Days  
Heating Degree Days 30 36  
Month to date heating degree days 651 755  
Since 1 July heating degree days 1658 1866  
Cooling Degree Days 0 0  
Month to date cooling degree days 0 0  
Year to date cooling degree days 1160 891  
Moisture  
Dew Point 31 °F    
Average Humidity 85    
Maximum Humidity 100    
Minimum Humidity 70    
Precipitation  
Precipitation T in 0.10 in 2.65 in (1941)
Month to date precipitation 4.75 2.30  
Year to date precipitation 56.13 40.23  
Snow  
Snow 0.00 in 0.10 in 4.10 in (1961)
Month to date snowfall 0.1 2.9  
Since 1 July snowfall 1.1 3.9  
Snow Depth 0.00 in    
Sea Level Pressure  
Sea Level Pressure 30.25 in    
Wind  
Wind Speed 7 mph (NNW)    
Max Wind Speed 17 mph    
Max Gust Speed 21 mph    
Visibility 7 miles    
Events      
T = Trace of Precipitation, MM = Missing Value Source: NWS Daily Summary

Daily Weather History Graph

Daily Weather History Graph

Search for Another Location

Airport or City:

Trip Planner

Search our weather history database for the weather conditions in past years. The results will help you decide how hot, cold, wet, or windy it might be!

Date:

Astronomy

Dec. 23, 2011 Rise Set
Actual Time 7:55 AM EST 5:16 PM EST
Civil Twilight 7:25 AM EST 5:46 PM EST
Nautical Twilight 6:51 AM EST 6:20 PM EST
Astronomical Twilight 6:18 AM EST 6:53 PM EST
Moon 6:44 AM EST (12/23) 4:23 PM EST (12/23)
Length of Visible Light 10h 21m
Length of Day
9h 20m
Waning Crescent, 1% of the Moon is Illuminated
Dec 23
Waning Crescent
Dec 24
New
Jan 1
First Quarter
Jan 9
Full
Jan 16
Last Quarter

Hourly Weather History & Observations

Time (EST) Temp. Windchill Dew Point Humidity Pressure Visibility Wind Dir Wind Speed Gust Speed Precip Events Conditions
12:56 AM 37.9 °F 33.5 °F 36.0 °F 93% 30.12 in 6.0 mi NW 5.8 mph - N/A   Overcast
1:43 AM 35.6 °F 30.7 °F 35.6 °F 100% 30.10 in 5.0 mi WNW 5.8 mph - N/A   Mostly Cloudy
1:56 AM 35.6 °F 30.7 °F 35.6 °F 100% 30.11 in 4.0 mi NW 5.8 mph - N/A   Mostly Cloudy
2:30 AM 35.6 °F 30.7 °F 35.6 °F 100% 30.13 in 4.0 mi NW 5.8 mph - N/A   Overcast
2:56 AM 37.0 °F 34.5 °F 36.0 °F 96% 30.16 in 4.0 mi West 3.5 mph - N/A   Overcast
3:56 AM 37.0 °F 33.3 °F 36.0 °F 96% 30.18 in 4.0 mi West 4.6 mph - N/A   Overcast
4:37 AM 37.4 °F 32.8 °F 37.4 °F 100% 30.16 in 4.0 mi West 5.8 mph - N/A   Overcast
4:56 AM 37.9 °F 32.7 °F 37.0 °F 97% 30.18 in 4.0 mi WNW 6.9 mph - N/A   Overcast
5:09 AM 37.4 °F 30.3 °F 35.6 °F 93% 30.16 in 5.0 mi NW 10.4 mph - N/A   Overcast
5:26 AM 35.6 °F 27.1 °F 35.6 °F 100% 30.17 in 4.0 mi NNW 12.7 mph - 0.00 in   Overcast
5:46 AM 35.6 °F 26.6 °F 35.6 °F 100% 30.19 in 1.8 mi NNW 13.8 mph - 0.00 in   Light Drizzle
5:56 AM 35.1 °F 25.9 °F 35.1 °F 100% 30.22 in 2.0 mi NNW 13.8 mph - 0.00 in   Light Drizzle
6:03 AM 35.6 °F 27.5 °F 35.6 °F 100% 30.19 in 1.8 mi NNW 11.5 mph - 0.00 in   Light Drizzle
6:30 AM 35.6 °F 27.5 °F 33.8 °F 93% 30.20 in 3.0 mi North 11.5 mph - 0.00 in   Light Drizzle
6:42 AM 35.6 °F 28.0 °F 33.8 °F 93% 30.21 in 6.0 mi North 10.4 mph - 0.00 in   Light Drizzle
6:56 AM 34.0 °F 25.0 °F 33.1 °F 96% 30.23 in 4.0 mi North 12.7 mph - 0.00 in   Overcast
7:49 AM 33.8 °F 26.4 °F 33.8 °F 100% 30.24 in 3.0 mi North 9.2 mph - N/A   Overcast
7:56 AM 33.8 °F 26.4 °F 33.8 °F 100% 30.25 in 2.5 mi North 9.2 mph - N/A   Overcast
8:10 AM 33.8 °F 25.8 °F 32.0 °F 93% 30.26 in 4.0 mi North 10.4 mph - N/A   Overcast
8:44 AM 32.0 °F 23.6 °F 30.2 °F 93% 30.26 in 7.0 mi North 10.4 mph - N/A   Overcast
8:56 AM 32.0 °F 22.1 °F 30.0 °F 92% 30.30 in 7.0 mi North 13.8 mph - N/A   Overcast
9:56 AM 33.1 °F 25.5 °F 30.0 °F 89% 30.33 in 10.0 mi North 9.2 mph - N/A   Overcast
10:51 AM 33.8 °F 24.8 °F 28.4 °F 81% 30.32 in 10.0 mi NNE 12.7 mph - N/A   Overcast
10:56 AM 33.1 °F 24.4 °F 28.9 °F 85% 30.35 in 10.0 mi North 11.5 mph - N/A   Overcast
11:27 AM 33.8 °F 27.0 °F 30.2 °F 87% 30.32 in 10.0 mi North 8.1 mph - N/A   Overcast
11:56 AM 33.1 °F 26.1 °F 30.0 °F 89% 30.34 in 10.0 mi North 8.1 mph - N/A   Mostly Cloudy
12:21 PM 35.6 °F 29.9 °F 30.2 °F 81% 30.30 in 10.0 mi North 6.9 mph - N/A   Mostly Cloudy
12:56 PM 35.6 °F 30.7 °F 28.4 °F 75% 30.28 in 7.0 mi North 5.8 mph - N/A   Mostly Cloudy
1:26 PM 35.6 °F 29.9 °F 26.6 °F 70% 30.27 in 10.0 mi North 6.9 mph - N/A   Overcast
1:56 PM 35.1 °F 32.2 °F 28.0 °F 76% 30.30 in 10.0 mi North 3.5 mph - N/A   Overcast
2:56 PM 36.0 °F 29.0 °F 27.0 °F 70% 30.29 in 10.0 mi NW 9.2 mph - N/A   Mostly Cloudy
3:56 PM 35.1 °F 28.6 °F 28.0 °F 76% 30.29 in 10.0 mi NW 8.1 mph - N/A   Overcast
4:56 PM 33.1 °F 26.9 °F 28.0 °F 82% 30.29 in 10.0 mi North 6.9 mph - N/A   Overcast
5:56 PM 33.8 °F - 28.4 °F 81% 30.28 in 10.0 mi Calm Calm - N/A   Overcast
6:56 PM 33.1 °F 28.7 °F 27.0 °F 78% 30.32 in 10.0 mi NNW 4.6 mph - N/A   Overcast
7:56 PM 32.0 °F 28.7 °F 24.1 °F 73% 30.33 in 10.0 mi WNW 3.5 mph - N/A   Overcast
8:56 PM 32.0 °F - 24.1 °F 73% 30.31 in 10.0 mi Calm Calm - N/A   Overcast
9:56 PM 32.0 °F 27.5 °F 25.0 °F 75% 30.31 in 10.0 mi SSE 4.6 mph - N/A   Overcast
10:56 PM 32.0 °F 26.4 °F 24.1 °F 73% 30.32 in 10.0 mi South 5.8 mph - N/A   Overcast
11:56 PM 32.0 °F 26.4 °F 25.0 °F 75% 30.33 in 10.0 mi SSW 5.8 mph - N/A   Mostly Cloudy